Regional Weather Roundup
Issued by NWS Newport/Morehead, NC

Home | Current Version | Previous Version | Text Only | Print | Product List | Glossary On
Versions: 1 2 3 4 5 6 7 8 9 10 11 12 13 14 15 16 17 18 19 20 21 22 23 24 25 26 27 28 29 30 31 32 33 34 35 36 37 38 39 40 41 42 43 44 45 46 47 48 49 50
000
ASUS42 KMHX 241225
RWRMHX
WEATHER ROUNDUP FOR EASTERN NORTH CAROLINA
NATIONAL WEATHER SERVICE NEWPORT/MOREHEAD CITY NC
800 AM EDT TUE MAY 24 2016

NOTE: "FAIR" INDICATES FEW OR NO CLOUDS BELOW 12,000 FEET
WITH NO SIGNIFICANT WEATHER AND/OR OBSTRUCTIONS TO VISIBILITY

NCZ015>017-031-032-045>047-102-103-241300-
NORTH COAST

CITY           SKY/WX    TMP DP  RH WIND       PRES   REMARKS
EDENTON        SUNNY    N/A N/A N/A W9        30.08R
ELIZABETH CITY SUNNY     61  54  77 SW8       30.05R
KITTY HAWK     SUNNY     64  57  77 W6        30.04R
MANTEO         SUNNY     61  56  85 W8        30.06R

$$

NCZ045>047-081-094-103-104-241300-
CENTRAL COAST

CITY           SKY/WX    TMP DP  RH WIND       PRES   REMARKS
FRISCO         SUNNY     66  55  67 W10       30.07R

$$

NCZ095-097-098-100-101-241300-
SOUTHERN COAST

CITY           SKY/WX    TMP DP  RH WIND       PRES   REMARKS
BEAUFORT       SUNNY     63  52  67 W5        30.09R
CEDAR ISLAND   NOT AVBL
JACKSONVILLE   MOSUNNY   60  54  80 W7        30.10R
PINEY ISLAND   NOT AVBL
WILMINGTON     SUNNY     61  55  81 W7        30.11R


$$

NCZ011>013-027>030-043-044-078>080-089-090>093-098-241300-
COASTAL PLAIN

CITY           SKY/WX    TMP DP  RH WIND       PRES   REMARKS
AHOSKIE        SUNNY     58  54  85 CALM      30.07R
CLINTON        SUNNY     59  56  87 W3        30.12R
ELIZABETHTOWN  SUNNY     61  54  77 CALM      30.12R
GOLDSBORO      SUNNY     58  58  99 SW3       30.08R
GREENVILLE     SUNNY     61  54  77 W3        30.10R
HAVELOCK       SUNNY     61  53  75 W8        30.10R
KENANSVILLE    SUNNY     60  54  82 CALM      30.12R
KINSTON        SUNNY     61  54  77 W5        30.10R
NEW BERN       SUNNY     60  53  77 W6        30.10R
RICHLANDS      SUNNY     60  55  83 W3        30.11R
ROCKY MOUNT    SUNNY     60  54  80 SW6       30.08R
WASHINGTON     SUNNY     61  53  74 W6        30.09R
WHITEVILLE     SUNNY     61  55  81 CALM      30.12R

$$

AMZ130-135-150-152-154-156-158-170-250-252-270-ANZ085-086-088-633-658-670-241300-
MARINE OBSERVATIONS

STATION/POSITION TIME  TEMP    WIND        PRES    WAVE   SWELL
                       AIR SEA DIR/SP/G            HT/PER HT/PER
                 (UTC) (F)     (DEG/KT/KT) (MB)    (FT/S) (FT/S)
CHESAPEAKE LIGHT 1200   60     240/ 16/ 16 1016.3
64 E VA BEACH    1150   58 56  250/  8/ 10 1016.0    4/ 9   5/ 9
DUCK             1200   62 62  240/ 10/ 12 1016.6
2 E DUCK         1111      62                N/A     3/ 9   2/11
OREGON INLET     1200   61 63  260/  7/ 10 1017.8
13E OREGON INLT  1200      60                N/A     4/11   5/11
HATTERAS CG      1200   65 66  280/ 15/ 16 1018.0
DIAMOND BUOY     1150   65 67  290/ 14/ 16 1018.3    5/ 9   3/ 9
CAPE LOOKOUT     1200   67     290/  9/ 11 1018.7
BEAUFORT LAB     1200   63 67  310/  3/  4 1018.1
30 SE NEW RVR IN 1155      73                N/A     2/ 8
27 SE WRIGHTSVLE 1208   69 72  320/  4/  8 1019.3
5 SE WRIGHTSVLE  1108   64 71  310/  6/  8 1019.3
225 S CAPE HAT   1150   74 77  270/ 12/ 16 1018.1    4/ 6   3/ 6
41 SE CHARLESTON 1150   71 75   20/  4/  6 1019.7    2/ 8   2/ 8

$$



USA.gov is the U.S. government's official web portal to all federal, state and local government web resources and services.